TimeCST,TemperatureF,Dew PointF,Humidity,Sea Level PressureIn,VisibilityMPH,Wind Direction,Wind SpeedMPH,Gust SpeedMPH,PrecipitationIn,Events,Conditions,WindDirDegrees,DateUTC
12:53 AM,48.0,42.1,80,29.83,4.0,East,13.8,-,N/A,,Haze,100,2012-11-10 06:53:00
1:29 AM,48.2,42.8,82,29.81,4.0,East,13.8,-,0.00,Rain-Thunderstorm,Light Rain,100,2012-11-10 07:29:00
1:53 AM,48.0,43.0,83,29.80,4.0,ESE,16.1,21.9,0.00,Thunderstorm,Haze,110,2012-11-10 07:53:00
2:01 AM,48.2,42.8,82,29.81,4.0,ESE,13.8,-,N/A,,Haze,110,2012-11-10 08:01:00
2:53 AM,48.0,43.0,83,29.78,4.0,ESE,16.1,21.9,N/A,,Haze,110,2012-11-10 08:53:00
3:53 AM,48.9,44.1,83,29.76,4.0,ESE,15.0,-,N/A,,Haze,120,2012-11-10 09:53:00
4:53 AM,50.0,45.0,83,29.74,4.0,SE,16.1,-,N/A,,Haze,130,2012-11-10 10:53:00
5:21 AM,48.2,44.6,87,29.74,3.0,SE,13.8,20.7,N/A,,Scattered Clouds,130,2012-11-10 11:21:00
5:53 AM,48.0,45.0,89,29.72,2.5,SE,15.0,-,N/A,,Clear,130,2012-11-10 11:53:00
6:53 AM,48.0,46.0,93,29.71,2.5,SE,16.1,-,N/A,,Clear,130,2012-11-10 12:53:00
7:53 AM,50.0,46.9,89,29.71,2.5,SE,13.8,24.2,N/A,,Partly Cloudy,140,2012-11-10 13:53:00
8:07 AM,51.8,48.2,88,29.71,3.0,SE,15.0,20.7,N/A,,Mostly Cloudy,140,2012-11-10 14:07:00
8:53 AM,53.1,50.0,89,29.68,5.0,SE,16.1,-,N/A,,Overcast,140,2012-11-10 14:53:00
9:32 AM,59.0,53.6,82,29.67,10.0,SSE,19.6,26.5,N/A,,Scattered Clouds,150,2012-11-10 15:32:00
9:53 AM,59.0,53.1,81,29.66,10.0,SSE,18.4,28.8,N/A,,Partly Cloudy,160,2012-11-10 15:53:00
10:53 AM,66.0,55.0,68,29.63,10.0,South,20.7,25.3,N/A,,Partly Cloudy,180,2012-11-10 16:53:00
11:53 AM,71.1,54.0,55,29.60,10.0,SSW,21.9,29.9,N/A,,Clear,200,2012-11-10 17:53:00
12:53 PM,73.9,52.0,46,29.58,10.0,SSW,23.0,34.5,N/A,,Clear,210,2012-11-10 18:53:00
1:53 PM,75.0,51.1,43,29.57,10.0,SSW,25.3,31.1,N/A,,Clear,200,2012-11-10 19:53:00
2:53 PM,75.9,53.1,45,29.56,10.0,South,23.0,34.5,N/A,,Clear,180,2012-11-10 20:53:00
3:53 PM,72.0,53.1,51,29.55,10.0,South,19.6,28.8,N/A,,Clear,180,2012-11-10 21:53:00
4:53 PM,68.0,54.0,61,29.56,10.0,South,15.0,-,N/A,,Clear,170,2012-11-10 22:53:00
5:53 PM,64.9,55.0,70,29.58,10.0,South,15.0,-,0.00,,Mostly Cloudy,170,2012-11-10 23:53:00
6:53 PM,66.0,55.0,68,29.57,10.0,South,16.1,-,N/A,,Overcast,170,2012-11-11 00:53:00
7:53 PM,66.0,54.0,65,29.54,10.0,South,20.7,31.1,N/A,,Overcast,170,2012-11-11 01:53:00
8:53 PM,63.0,52.0,67,29.54,10.0,South,19.6,27.6,N/A,,Partly Cloudy,170,2012-11-11 02:53:00
9:53 PM,62.1,51.1,67,29.55,10.0,South,18.4,25.3,N/A,,Clear,170,2012-11-11 03:53:00
10:53 PM,62.1,50.0,65,29.56,10.0,South,17.3,-,N/A,,Mostly Cloudy,180,2012-11-11 04:53:00
11:53 PM,62.1,51.1,67,29.63,10.0,WSW,20.7,28.8,0.01,Rain,Light Rain,240,2012-11-11 05:53:00